THOR ABLESTAR DEB, 6842

Orbit data source: Space-Track

THOR ABLESTAR DEB, 6842 is space debris in LEO originally from a launch on Thu, 29 Jun 1961 UTC launched from the Air Force Eastern Test Range (AFETR). Debris objects in space refer to the collection of defunct objects orbiting the Earth. Examples of debris include non-operational satellites, rocket bodies, and fragments generated from explosions, collisions, or faulty payload assembly.

Loading next visibility...
Identifier
6842, 1961-015KP
Orbit
LEO
Country
Flag of USUS
Related business
Manufacturer
Unknown
Mission
Spacecraft
Bus & Motor
Unknown
Mass
Unknown
Launch date (UTC)
1961-06-29 (64 years ago)
Launch vehicle
Unknown
Launch site
Air Force Eastern Test Range (AFETR)
Object type
Payload
Rocket body
Debris
Shape & HBR
Unknown shape, 0.1 m
Radar Cross Section
Small (<0.1 m²)

Expand to show TLE details & history
Last TLE update: 11 hours ago

TLE from 11 hours ago
0 THOR ABLESTAR DEB
1 06842U 61015KP  25299.81364799 -.00000018  00000-0  11578-3 0  9992
2 06842  66.7322 225.8893 0656431 290.7661  94.3735 12.45659137303359
Epoch: 2025-10-26T19:31Z
TLE epoch observation values (Epoch: 2025-10-26T19:31:39.186Z)
Latitude
29.7004°
Longitude
-88.32069°
Altitude
1,558.169 km
Speed
7.058 km/s
True Right ascension
16h 00m 04s
True Declination
29° 34' 03"
Sunlit
Object was in daylight at epoch
Visualization orbit readout
Latitude
Unknown
Longitude
Unknown
Altitude
Unknown
Speed
Unknown
Apparent Right ascension
Unknown
Apparent Declination
Unknown
Sunlit
N/A
Visualization observer readout
Local Sidereal Time
02:07:42
Azimuth
Unknown
Elevation
Unknown
Doppler factor
Unknown
Orbital elements
Apogee altitude
1,997.122 km
Perigee altitude
965.298 km
Semi-major axis
7,859.347 km
Eccentricity
0.06564
Inclination
66.7322°
RAAN
225.8893°
Arg. of periapsis
290.7661°
True anomaly
101.80621°
Mean anomaly
94.3735°
Eccentric anomaly
98.09708°
Mean motion
3.11504 °/min
Orbital period
115.57 mins
BSTAR
0.00011578
Loading maneuver chart data...
Computing Atmospheric mass density...

Documentation

Showing up to 5 results
|